Location: Casco Volunteer Fire Department
(44.5576°N, 87.6146°W)
Time: 03:44:32
(UTC+00:00)

USA 59 Rocket - Visible Passes

Search period start: 21 April 2026 00:00
Search period end: 01 May 2026 00:00
Orbit: 368 x 1667 km, 63.3° (Epoch: 20 April)

Date Brightness Start Highest point End Pass type
(mag) Time Alt. Az. Time Alt. Az. Time Alt. Az.
21 Apr -0.2 01:48:00 10° NNW 01:51:26 67° NE 01:54:34 18° SE visible
21 Apr 2.5 03:38:08 10° W 03:39:57 13° WSW 03:40:07 13° WSW visible
22 Apr 1.0 02:26:14 10° NW 02:29:40 38° SW 02:32:14 20° S visible
23 Apr -0.1 01:15:55 10° NNW 01:19:20 63° NE 01:23:52 10° SE visible
23 Apr 2.5 03:05:50 10° W 03:07:51 13° WSW 03:09:59 10° SW visible
24 Apr 1.0 01:54:05 10° NW 01:57:31 40° SW 02:02:04 10° SSE visible
25 Apr 2.6 02:33:29 10° W 02:35:41 14° WSW 02:38:12 10° SSW visible
26 Apr 0.9 01:21:50 10° NW 01:25:17 43° SW 01:29:53 10° SSE visible
27 Apr 2.6 02:01:04 10° W 02:03:26 15° WSW 02:06:09 10° SSW visible
29 Apr 2.6 01:28:36 10° W 01:31:06 16° WSW 01:34:02 10° SSW visible
